[[{"header":{"parameterUnit":"m.s-1","parameterCategory":1,"la1":30.2991,"la2":30.254,"lo1":-89.0895,"lo2":-89.0444,"dy":0.0017,"dx":0.0017,"nx":28,"ny":28,"refTime":"2025-06-10T03:00:00:Z","depth":0,"parameterNumber":2,"parameterNumberName":"U-component_of_WINDS"},"data":[0,0,0,0,0,0,0,0,0,0,0,0,0,0,0,0,0,0,0,0,0,0,0,0,0,0,0,0,0,0,0,0,0,0,0,0,0,0,0,0,0,0,0,0,0,0,0,0,0,0,0,0,0,0,0,0,0,0,2.7868,2.7869,0,2.7981,2.7983,2.7984,2.7997,2.7996,2.7995,2.7994,2.8114,2.8118,2.8123,0,0,0,0,0,0,0,0,0,0,0,0,0,2.7668,2.7671,2.7867,2.7869,2.787,2.7981,2.7983,2.7984,2.7997,2.7996,2.7994,2.7993,2.8113,2.8118,2.8123,0,0,0,0,0,0,0,0,0,0,0,0,0,2.7765,2.7673,2.7867,2.789,2.7893,2.7981,2.7983,2.7985,2.7997,2.7996,2.7994,2.7992,2.8111,2.8117,2.8124,2.8198,0,0,2.8143,2.8146,0,0,0,0,0,0,0,0,2.776,2.7773,2.7885,2.7889,2.7892,2.7973,2.7957,2.8056,2.7998,2.7958,2.7993,2.7991,2.8069,2.8079,2.8104,2.8203,2.8209,2.8144,2.8148,2.815,2.8152,0,0,0,0,0,0,0,2.7753,2.7768,2.7913,2.7887,2.7891,2.7897,2.7909,2.7976,2.8022,2.7961,2.7962,2.7976,2.8071,2.8098,2.8107,2.821,2.8144,2.8149,2.8153,2.8156,2.8381,2.8383,0,0,0,0,0,0,2.7741,2.7762,2.7909,2.7916,2.782,2.7902,2.7915,2.7949,2.8021,2.803,2.7977,2.7976,2.8088,2.8099,2.8111,2.8205,2.815,2.8156,2.816,2.8379,2.8381,2.8383,0,0,0,0,0,0,2.7737,2.7754,2.7904,2.784,2.7859,2.7907,2.7945,2.7952,2.7979,2.8033,2.8042,2.7996,2.8087,2.8102,2.8177,2.8209,2.8159,2.8165,2.8376,2.8379,2.8382,2.8391,0,0,0,0,0,0,2.7731,2.7753,2.7779,2.784,2.7862,2.7966,2.7947,2.7956,2.799,2.7989,2.8053,2.8062,2.8087,2.8167,2.8183,2.8217,2.817,2.8373,2.8377,2.8381,2.8388,2.8394,2.8399,0,0,0,0,0,2.7724,2.7777,2.7781,2.7798,2.7897,2.7968,2.7981,2.8007,2.7992,2.8021,2.8056,2.806,2.8203,2.8175,2.8193,2.8229,2.8371,2.8376,2.8381,2.8385,2.8393,2.8399,0,0,0,0,0,0,2.7719,2.7785,2.779,2.7864,2.791,2.797,2.8006,2.8013,2.8065,2.8063,2.8095,2.8109,2.8183,2.8214,2.8181,2.8307,2.8286,2.8295,2.8283,2.8291,2.8296,2.8287,2.8176,0,0,0,0,0,2.7727,2.7777,2.7833,2.7893,2.7916,2.7957,2.7989,2.8006,2.8055,2.8075,2.8116,2.8165,2.8222,2.8258,2.8313,2.8393,2.8409,2.8427,2.8433,2.8437,2.8444,2.8492,2.8502,2.8399,2.8399,2.8399,0,0,2.7743,2.7785,2.7815,2.7894,2.7931,2.7985,2.7973,2.803,2.8071,2.8084,2.8157,2.8189,2.8247,2.8325,2.8362,2.8353,2.8477,2.8443,2.8446,2.8451,2.8498,2.8508,2.8517,2.8402,2.8402,2.8401,0,0,2.78,2.7836,2.7891,2.793,2.7987,2.8015,2.8029,2.8088,2.811,2.8183,2.8195,2.8246,2.8342,2.8383,2.8417,2.8494,2.8501,2.8511,2.854,2.8587,2.8595,2.8602,2.8632,2.8642,2.8518,2.8518,2.8518,0,2.7813,2.7892,2.7919,2.7976,2.8012,2.8026,2.8084,2.8121,2.8194,2.8219,2.8208,2.8331,2.8371,2.8461,2.848,2.8506,2.8525,2.8504,2.8591,2.8599,2.8606,2.8635,2.8645,2.8519,2.8519,2.8519,2.8519,0,2.7907,2.7962,2.8001,2.807,2.811,2.8167,2.8206,2.8243,2.8258,2.8288,2.8365,2.8413,2.848,2.8502,2.8517,2.8596,2.8589,2.8584,2.8564,2.8617,2.8644,2.8655,2.8521,2.852,2.852,2.852,0,0,2.796,2.8047,2.8061,2.8094,2.816,2.8205,2.8265,2.8329,2.8362,2.8413,2.8466,2.8548,2.8546,2.8584,2.8604,2.8645,2.8706,2.8636,2.8638,2.8648,2.8799,2.8801,2.8813,2.8711,2.8713,2.8715,2.8794,0,2.8026,2.813,2.8158,2.8248,2.8302,2.8319,2.8372,2.842,2.845,2.8502,2.8537,2.8595,2.8586,2.861,2.8651,2.8689,2.8736,2.8684,2.8762,2.8764,2.8747,2.8827,2.883,2.8902,2.8805,2.8807,2.8808,0,2.8114,2.8167,2.8262,2.8325,2.8349,2.8395,2.8458,2.8507,2.8563,2.8583,2.8628,2.8645,2.8711,2.8689,2.8782,2.8746,2.878,2.8804,2.8808,2.8816,2.8789,2.8839,2.8926,2.8937,2.8825,2.8823,2.8822,0,2.8146,2.8241,2.8311,2.8339,2.8413,2.8446,2.8479,2.8534,2.8572,2.8628,2.8654,2.8717,2.8752,2.8802,2.8838,2.8817,2.8929,2.8908,2.8949,2.8948,2.8971,2.8969,2.9065,2.8992,2.8992,2.8992,2.8992,0,2.8215,2.8273,2.8327,2.8369,2.8436,2.847,2.8536,2.857,2.8619,2.8671,2.8691,2.874,2.8783,2.8838,2.8867,2.8941,2.8957,2.8976,2.8983,2.8974,2.8972,2.8997,2.8993,2.8995,2.8994,2.8994,2.8993,0,2.826,2.8298,2.8376,2.8441,2.8459,2.8506,2.8563,2.8607,2.864,2.8706,2.8723,2.8775,2.8842,2.8882,2.8967,2.8986,2.9069,2.9073,2.9049,2.9052,2.9091,2.9087,2.9207,2.9225,2.9139,2.914,2.9141,0,2.8302,2.8347,2.8418,2.8454,2.8487,2.8544,2.8584,2.8621,2.8661,2.8731,2.8768,2.8836,2.8892,2.8999,2.9045,2.9111,2.9118,2.9156,2.9128,2.9119,2.912,2.9117,2.9123,2.916,2.9161,2.9161,2.9162,0,2.8372,2.839,2.8445,2.8508,2.8555,2.8607,2.8658,2.8687,2.8733,2.8779,2.8847,2.8891,2.8978,2.9047,2.9117,2.9154,2.9167,2.9171,2.9184,2.9175,2.916,2.917,2.9062,2.9167,2.9167,2.9166,2.9166,2.9166,2.8418,2.846,2.8517,2.8579,2.8622,2.8671,2.8716,2.8756,2.8813,2.8886,2.8905,2.8978,2.9038,2.9134,2.9172,2.9231,2.9226,2.9244,2.9249,2.9253,2.9255,2.9151,2.9244,2.9244,2.9244,2.9244,2.9244,0,2.849,2.8529,2.8585,2.8658,2.8708,2.8715,2.8774,2.8816,2.8879,2.8933,2.8988,2.9069,2.9137,2.919,2.926,2.9297,2.9305,2.9314,2.9312,2.9321,2.9255,2.9237,2.9307,2.9307,2.9307,2.9307,2.9307,2.9307,2.8533,2.8606,2.8631,2.8726,2.8765,2.8836,2.8869,2.8915,2.8959,2.9048,2.9104,2.9138,2.9193,2.9268,2.9331,2.9345,2.9371,2.9379,2.9395,2.9332,2.9325,2.9319,2.9302,2.9384,2.9385,2.9456,2.9457,2.9457]},{"header":{"parameterUnit":"m.s-1","parameterCategory":1,"la1":30.2991,"la2":30.254,"lo1":-89.0895,"lo2":-89.0444,"dy":0.0017,"dx":0.0017,"nx":28,"ny":28,"refTime":"2025-06-10T03:00:00:Z","depth":0,"parameterNumber":3,"parameterNumberName":"V-component_of_WINDS"},"data":[0,0,0,0,0,0,0,0,0,0,0,0,0,0,0,0,0,0,0,0,0,0,0,0,0,0,0,0,0,0,0,0,0,0,0,0,0,0,0,0,0,0,0,0,0,0,0,0,0,0,0,0,0,0,0,0,0,0,5.6801,5.6803,0,5.6966,5.6968,5.697,5.701,5.7009,5.7008,5.7007,5.7167,5.7172,5.7177,0,0,0,0,0,0,0,0,0,0,0,0,0,5.6513,5.6518,5.6801,5.6803,5.6805,5.6966,5.6968,5.697,5.7011,5.7009,5.7008,5.7007,5.7166,5.7172,5.7178,0,0,0,0,0,0,0,0,0,0,0,0,0,5.6653,5.6519,5.68,5.6845,5.685,5.6965,5.6968,5.6971,5.7011,5.7009,5.7008,5.7006,5.7163,5.7171,5.7179,5.7258,0,0,5.7203,5.7206,0,0,0,0,0,0,0,0,5.6645,5.6664,5.6836,5.6842,5.6848,5.6966,5.6925,5.7067,5.7011,5.695,5.7007,5.7006,5.7101,5.7114,5.7148,5.7266,5.7273,5.7203,5.7208,5.7212,5.7214,0,0,0,0,0,0,0,5.6636,5.6657,5.6866,5.6838,5.6846,5.6854,5.6872,5.6952,5.7032,5.6955,5.6958,5.6978,5.7104,5.714,5.7152,5.7275,5.7203,5.721,5.7215,5.7218,5.7468,5.747,0,0,0,0,0,0,5.6619,5.6649,5.686,5.6871,5.6741,5.686,5.6881,5.693,5.7031,5.7045,5.6979,5.6979,5.7128,5.7143,5.7158,5.7259,5.7212,5.7219,5.7223,5.7466,5.7468,5.747,0,0,0,0,0,0,5.6613,5.6638,5.6854,5.6761,5.6789,5.6867,5.6922,5.6934,5.697,5.7049,5.7063,5.7002,5.7127,5.7147,5.7234,5.7265,5.7222,5.723,5.7464,5.7467,5.7469,5.7462,0,0,0,0,0,0,5.6605,5.6635,5.6668,5.6761,5.6794,5.693,5.6924,5.6938,5.6985,5.6987,5.7075,5.7088,5.7127,5.7222,5.7242,5.7275,5.7236,5.7461,5.7465,5.7468,5.7459,5.7464,5.7468,0,0,0,0,0,5.6594,5.6657,5.667,5.6695,5.6837,5.6931,5.695,5.6997,5.6987,5.702,5.7071,5.7085,5.7258,5.7231,5.7253,5.7289,5.746,5.7464,5.7468,5.7457,5.7463,5.7468,0,0,0,0,0,0,5.6562,5.667,5.6685,5.6781,5.6847,5.6938,5.6981,5.7001,5.7069,5.7067,5.712,5.7139,5.7224,5.7265,5.7232,5.7372,5.7359,5.7368,5.7343,5.7349,5.7353,5.7341,5.7242,0,0,0,0,0,5.6566,5.6637,5.6726,5.6802,5.6835,5.6902,5.6945,5.6976,5.7045,5.7073,5.713,5.7195,5.7264,5.7308,5.7376,5.7465,5.7485,5.7501,5.7505,5.7508,5.7515,5.7567,5.7575,5.7485,5.7485,5.7485,0,0,5.6575,5.6643,5.6684,5.6797,5.6852,5.6922,5.6925,5.6998,5.705,5.7083,5.7171,5.7214,5.729,5.7379,5.7421,5.7416,5.7545,5.7514,5.7516,5.7521,5.7572,5.7581,5.7588,5.7488,5.7487,5.7487,0,0,5.6628,5.6686,5.6757,5.6813,5.6898,5.6942,5.6959,5.7048,5.708,5.7169,5.7196,5.7256,5.7374,5.7428,5.747,5.7545,5.756,5.7565,5.7587,5.7636,5.7643,5.765,5.7677,5.7686,5.7572,5.7572,5.7572,0,5.6627,5.6737,5.6789,5.6863,5.6912,5.6948,5.7019,5.7069,5.717,5.7202,5.7196,5.7347,5.74,5.7502,5.7521,5.7554,5.7574,5.7555,5.7638,5.7645,5.7652,5.7679,5.7689,5.7572,5.7572,5.7572,5.7572,0,5.6733,5.6808,5.6854,5.6955,5.7009,5.708,5.7142,5.7189,5.7216,5.726,5.735,5.7416,5.7499,5.7525,5.7549,5.7632,5.7626,5.7628,5.7616,5.766,5.7686,5.7697,5.7572,5.7572,5.7572,5.7572,0,0,5.6769,5.69,5.6916,5.6964,5.706,5.7118,5.7191,5.7275,5.7316,5.7383,5.7445,5.7545,5.7549,5.7597,5.7628,5.7671,5.7728,5.7668,5.7671,5.7678,5.7823,5.7821,5.7832,5.7738,5.774,5.7742,5.7817,0,5.6834,5.6969,5.7019,5.7129,5.7199,5.7235,5.7298,5.7363,5.7407,5.747,5.7517,5.7588,5.7587,5.7617,5.7661,5.7711,5.7757,5.7706,5.7795,5.7797,5.7776,5.7846,5.7845,5.7912,5.7827,5.7829,5.783,0,5.6929,5.7003,5.7121,5.7211,5.7242,5.7299,5.7381,5.7442,5.7516,5.7544,5.76,5.7628,5.7704,5.7686,5.779,5.7755,5.7793,5.7823,5.7827,5.7838,5.7817,5.7859,5.7934,5.7945,5.7846,5.7845,5.7844,0,5.6945,5.7073,5.7162,5.72,5.7307,5.7346,5.7392,5.7465,5.7513,5.7583,5.7615,5.7692,5.7734,5.7792,5.784,5.7822,5.794,5.7926,5.7965,5.7964,5.7988,5.7986,5.8072,5.8011,5.8011,5.8011,5.8011,0,5.7014,5.7084,5.7171,5.7225,5.7305,5.736,5.7437,5.7485,5.7549,5.7612,5.7645,5.7702,5.7762,5.7826,5.7864,5.7945,5.7963,5.7987,5.7997,5.7985,5.7982,5.8012,5.8009,5.8014,5.8013,5.8013,5.8012,0,5.7045,5.7106,5.7205,5.7299,5.7325,5.7379,5.7459,5.7512,5.7558,5.7636,5.7657,5.7728,5.7806,5.786,5.7958,5.7983,5.8071,5.8079,5.8047,5.8052,5.8089,5.8085,5.8197,5.8215,5.8141,5.8142,5.8142,0,5.7086,5.7142,5.7244,5.729,5.7337,5.741,5.7461,5.7517,5.7567,5.7657,5.7698,5.7779,5.7847,5.7969,5.8027,5.8103,5.8113,5.8148,5.8125,5.8112,5.8115,5.8112,5.8118,5.8151,5.8151,5.8152,5.8152,0,5.7151,5.718,5.7253,5.7337,5.7398,5.7466,5.7534,5.7568,5.7636,5.7691,5.7773,5.7826,5.7928,5.8008,5.809,5.8133,5.8154,5.8159,5.8173,5.8162,5.8142,5.8155,5.8058,5.8156,5.8156,5.8156,5.8155,5.8155,5.719,5.7242,5.7323,5.7404,5.7462,5.7525,5.7581,5.7635,5.7705,5.7796,5.7823,5.7909,5.7981,5.8094,5.8139,5.8205,5.8202,5.8221,5.8226,5.823,5.8231,5.8131,5.8219,5.8219,5.8219,5.8219,5.8219,0,5.7259,5.7313,5.7387,5.7484,5.7547,5.7564,5.7641,5.7691,5.7767,5.7835,5.7902,5.7996,5.8074,5.814,5.8219,5.826,5.8271,5.8279,5.8277,5.8287,5.8228,5.8209,5.8268,5.8268,5.8268,5.8268,5.8268,5.8268,5.7302,5.7392,5.743,5.7549,5.7602,5.7689,5.7731,5.7789,5.7844,5.7949,5.8015,5.8059,5.8125,5.8211,5.8282,5.8299,5.8327,5.8333,5.8352,5.8296,5.8291,5.8285,5.8268,5.8339,5.8339,5.8406,5.8407,5.8407]}]]